sat.trackr.live / text

‹ back to catalog

STARLINK-30811

NORAD 58167 · 2023-166T

PAYLOAD ACTIVE UNKNOWN

§ Identity

Operator
Country
US
Launch date
2023-10-29
Launch site
AFWTR
Launch vehicle
Mass (kg)
RCS (m²)

Purposes: comms

External: N2YO · Heavens-Above · Gunter

§ Orbital elements

Epoch: 2026-05-24T15:12:43.448544Z

Period
94.01 min
Inclination
53.1597°
Eccentricity
0.0000814
Mean motion
15.31706507 rev/d
Perigee alt
470.2 km
Apogee alt
471.3 km
Semi-major
6,848.9 km
B*
3.6367e-5
RAAN
226.3713°
Arg perigee
76.9872°
Mean anomaly
283.1220°
Rev number
14,466

§ Raw data

STARLINK-308111 58167U 23166T   26144.63383621  .00000764  00000+0  36367-4 0  99992 58167  53.1597 226.3713 0000814  76.9872 283.1220 15.31706507144669

JSON: /api/v1/satellites/58167 · /tle

For live sub-satellite position, see the globe view (requires WebGL).

§ Visibility from observer

Set your observer location to see the next 7 days of passes ≥ 10°. The values pass through the URL so the page stays shareable.

No JS? Fill the form by hand. The geolocation button needs JavaScript.